Location: Melbourne
(37.8170°S, 144.9670°E)
Time: 03:33:51
(UTC+10:00)

ERBS - Visible Passes

Search period start: 17 August 2017 00:00
Search period end: 27 August 2017 00:00
Orbit: 429 x 440 km, 57.0° (Epoch: 15 August)

Date Brightness Start Highest point End Pass type
(mag) Time Alt. Az. Time Alt. Az. Time Alt. Az.
19 Aug 5.9 06:26:54 10° NE 06:28:11 12° ENE 06:29:28 10° E visible
22 Aug 4.6 05:54:54 10° N 05:57:51 27° NE 06:00:50 10° ESE visible
23 Aug 5.3 05:13:38 10° NNE 05:15:46 16° ENE 05:17:54 10° E visible
24 Aug 2.3 06:06:24 10° NW 06:09:50 68° SW 06:13:19 10° SE visible
25 Aug 2.6 05:25:49 26° NNW 05:27:36 66° NE 05:31:04 10° SE visible
26 Aug 3.9 04:45:53 34° ENE 04:45:53 34° ENE 04:48:38 10° ESE visible
26 Aug 3.9 06:19:31 10° W 06:22:10 20° SW 06:24:51 10° SSE visible
